Regional Weather Roundup
Issued by NWS Sioux Falls, SD

Home | Current Version | Previous Version | Text Only | Print | Product List | Glossary Off
Versions: 1 2 3 4 5 6 7 8 9 10 11 12 13 14 15 16 17 18 19 20 21 22 23 24 25 26 27 28 29 30 31 32 33 34 35 36 37 38 39 40 41 42 43 44 45 46 47 48 49 50

000
ASUS43 KFSD 240302
RWRFSD

WEATHER ROUNDUP FOR SE SOUTH DAKOTA/SW MINNESOTA/NW IOWA
NATIONAL WEATHER SERVICE SIOUX FALLS SD
900 PM CST FRI FEB 23 2018

NOTE: "FAIR" INDICATES FEW OR NO CLOUDS BELOW 12,000 FEET WITH NO
SIGNIFICANT WEATHER AND OR OBSTRUCTIONS TO VISIBILITY.


SDZ038>040-050-052>070-240400-
SOUTHEAST SOUTH DAKOTA

CITY           SKY/WX    TMP DP  RH WIND       PRES   REMARKS
BROOKINGS      CLOUDY    14  12  92 CALM      30.28F FOG
CHAMBERLAIN    CLEAR      3   1  91 CALM      30.23F
HURON          CLEAR      5   3  91 CALM      30.29F FOG
MADISON        FOG        3   3 100 NW3       30.26F VSB 1/4
MITCHELL       PTCLDY     7   5  91 CALM      30.29F FOG
SIOUX FALLS    CLOUDY    17  15  92 N9        30.27F FOG     WCI   6
WINNER         FAIR       8   5  87 SE5       30.20F WCI   0
YANKTON        FOG        9   7  92 N3        30.29S VSB 1/2
$$

MNZ071-072-080-081-089-090-097-098-240400-
SOUTHWEST MINNESOTA

CITY           SKY/WX    TMP DP  RH WIND       PRES   REMARKS
FAIRMONT       FOG       12  10  92 CALM      30.30S VSB 1/2
JACKSON        CLOUDY    19  18  93 NW14      30.27F WCI   6
LUVERNE        CLOUDY    18  14  86 NW7       30.29S FOG     WCI   8
MARSHALL       CLOUDY     7   4  87 NW5       30.31S WCI  -2
MONTEVIDEO     CLOUDY    10   5  79 CALM      30.32R
PIPESTONE      FOG       16  12  86 NW6       30.26F VSB 1/2 WCI   7
REDWOOD FALLS  CLOUDY    15  13  91 W9        30.31S WCI   3
TRACY          CLOUDY    17  16  96 W5        30.28F WCI  10
WORTHINGTON    LGT SNOW  17  16  95 NW10      30.27F VSB 1   WCI   5
$$

IAZ001>003-012>014-020>022-031-032-NEZ013-014-SDZ071-240400-
NORTHWEST IOWA

CITY           SKY/WX    TMP DP  RH WIND       PRES   REMARKS
CHEROKEE       CLOUDY    21  20  98 N7        30.29R WCI  12
DENISON        CLOUDY    19  19 100 NE10G17   30.28F WCI   8
ESTHERVILLE    CLEAR     11   9  92 NW8       30.27F WCI  -1
LE MARS        CLOUDY    19  18  93 N8        30.30R FOG     WCI   9
ORANGE CITY    CLOUDY    19  19 100 N5        30.27F FOG     WCI  13
SHELDON        CLOUDY    18  18 100 N8        30.26S FOG     WCI   7
SIOUX CITY     CLOUDY    19  17  92 NE6       30.30R WCI  11
SPENCER        CLOUDY    21  18  88 NW10      30.28S WCI  10
STORM LAKE     CLEAR     21  21 100 N8        30.27R WCI  12
$$

ABBREVIATIONS USED IN REMARKS
   TC - TEMPERATURE IN CELSIUS
  WCI - WIND CHILL INDEX
   HX - HEAT INDEX
  VSB - VISIBILITY





USA.gov is the U.S. government's official web portal to all federal, state and local government web resources and services.